Time,TemperatureF,DewpointF,PressureIn,WindDirection,WindDirectionDegrees,WindSpeedMPH,WindSpeedGustMPH,Humidity,HourlyPrecipIn,Conditions,Clouds,dailyrainin,SoftwareType,DateUTC
2013-06-26 00:06:00,80.5,77.0,29.98,SSE,148,2.0,3.0,88,0.00,,,0.00,weatherlink.com 1.10,2013-06-26 05:06:00,
2013-06-26 00:21:00,79.9,76.0,29.98,SE,143,0.0,2.0,88,0.00,,,0.00,weatherlink.com 1.10,2013-06-26 05:21:00,
2013-06-26 00:36:00,79.4,76.0,29.97,SSE,161,0.0,1.0,89,0.00,,,0.00,weatherlink.com 1.10,2013-06-26 05:36:00,
2013-06-26 00:51:00,78.8,76.0,29.97,SSE,158,0.0,1.0,90,0.00,,,0.00,weatherlink.com 1.10,2013-06-26 05:51:00,
2013-06-26 01:06:00,78.5,75.0,29.97,SSE,164,0.0,1.0,90,0.00,,,0.00,weatherlink.com 1.10,2013-06-26 06:06:00,
2013-06-26 01:21:00,78.4,76.0,29.98,SSE,159,0.0,0.0,91,0.00,,,0.00,weatherlink.com 1.10,2013-06-26 06:21:00,
2013-06-26 01:36:00,78.0,75.0,29.97,SSE,159,0.0,0.0,91,0.00,,,0.00,weatherlink.com 1.10,2013-06-26 06:36:00,
2013-06-26 01:51:00,77.7,75.0,29.96,SSE,159,0.0,1.0,92,0.00,,,0.00,weatherlink.com 1.10,2013-06-26 06:51:00,
2013-06-26 02:06:00,77.7,75.0,29.96,South,184,0.0,1.0,92,0.00,,,0.00,weatherlink.com 1.10,2013-06-26 07:06:00,
2013-06-26 02:22:00,77.8,75.0,29.96,SSE,155,0.0,2.0,92,0.00,,,0.00,weatherlink.com 1.10,2013-06-26 07:22:00,
2013-06-26 02:37:00,77.9,76.0,29.96,South,191,0.0,1.0,92,0.00,,,0.00,weatherlink.com 1.10,2013-06-26 07:37:00,
2013-06-26 02:52:00,77.8,75.0,29.96,South,191,0.0,1.0,92,0.00,,,0.00,weatherlink.com 1.10,2013-06-26 07:52:00,
2013-06-26 03:07:00,77.8,75.0,29.96,SSW,203,0.0,2.0,92,0.00,,,0.00,weatherlink.com 1.10,2013-06-26 08:07:00,
2013-06-26 03:22:00,78.0,75.0,29.96,SSW,197,1.0,2.0,91,0.00,,,0.00,weatherlink.com 1.10,2013-06-26 08:22:00,
2013-06-26 03:37:00,78.1,75.0,29.95,SSE,156,1.0,2.0,90,0.00,,,0.00,weatherlink.com 1.10,2013-06-26 08:37:00,
2013-06-26 03:52:00,78.6,75.0,29.95,SSW,197,2.0,3.0,89,0.00,,,0.00,weatherlink.com 1.10,2013-06-26 08:52:00,
2013-06-26 04:07:00,78.8,75.0,29.96,SSE,156,2.0,2.0,88,0.00,,,0.00,weatherlink.com 1.10,2013-06-26 09:07:00,
2013-06-26 04:22:00,78.8,75.0,29.95,SSE,148,1.0,3.0,89,0.00,,,0.00,weatherlink.com 1.10,2013-06-26 09:22:00,
2013-06-26 04:37:00,78.6,76.0,29.96,SSW,193,1.0,1.0,90,0.00,,,0.00,weatherlink.com 1.10,2013-06-26 09:37:00,
2013-06-26 04:52:00,78.8,75.0,29.95,SSE,158,1.0,3.0,89,0.00,,,0.00,weatherlink.com 1.10,2013-06-26 09:52:00,
2013-06-26 05:08:00,79.0,76.0,29.95,South,173,1.0,3.0,89,0.00,,,0.00,weatherlink.com 1.10,2013-06-26 10:08:00,
2013-06-26 05:22:00,79.3,76.0,29.96,SSE,162,1.0,4.0,89,0.00,,,0.00,weatherlink.com 1.10,2013-06-26 10:22:00,
2013-06-26 05:37:00,79.5,76.0,29.96,SW,222,0.0,2.0,88,0.00,,,0.00,weatherlink.com 1.10,2013-06-26 10:37:00,
2013-06-26 05:52:00,79.3,76.0,29.97,SSE,162,0.0,2.0,88,0.00,,,0.00,weatherlink.com 1.10,2013-06-26 10:52:00,
2013-06-26 06:07:00,79.2,75.0,29.97,SSE,156,2.0,2.0,88,0.00,,,0.00,weatherlink.com 1.10,2013-06-26 11:07:00,
2013-06-26 06:22:00,79.1,75.0,29.97,SSW,200,0.0,2.0,88,0.00,,,0.00,weatherlink.com 1.10,2013-06-26 11:22:00,
2013-06-26 06:37:00,79.0,75.0,29.97,South,169,0.0,1.0,88,0.00,,,0.00,weatherlink.com 1.10,2013-06-26 11:37:00,
2013-06-26 06:52:00,79.4,76.0,29.97,South,188,1.0,3.0,88,0.00,,,0.00,weatherlink.com 1.10,2013-06-26 11:52:00,
2013-06-26 07:07:00,80.8,77.0,29.97,South,170,2.0,4.0,87,0.00,,,0.00,weatherlink.com 1.10,2013-06-26 12:07:00,
2013-06-26 07:22:00,81.8,77.0,29.98,SSW,201,1.0,5.0,85,0.00,,,0.00,weatherlink.com 1.10,2013-06-26 12:22:00,
2013-06-26 07:37:00,82.2,77.0,29.98,South,190,4.0,4.0,84,0.00,,,0.00,weatherlink.com 1.10,2013-06-26 12:37:00,
2013-06-26 07:52:00,83.0,77.0,29.99,SSE,159,0.0,5.0,82,0.00,,,0.00,weatherlink.com 1.10,2013-06-26 12:52:00,
2013-06-26 08:07:00,84.3,78.0,29.99,SE,134,2.0,5.0,80,0.00,,,0.00,weatherlink.com 1.10,2013-06-26 13:07:00,
2013-06-26 08:22:00,85.6,78.0,30.00,SSE,150,0.0,4.0,79,0.00,,,0.00,weatherlink.com 1.10,2013-06-26 13:22:00,
2013-06-26 08:37:00,85.7,79.0,30.00,South,190,1.0,3.0,80,0.00,,,0.00,weatherlink.com 1.10,2013-06-26 13:37:00,
2013-06-26 08:52:00,83.8,77.0,30.00,WNW,295,0.0,3.0,81,0.00,,,0.00,weatherlink.com 1.10,2013-06-26 13:52:00,
2013-06-26 09:07:00,84.7,78.0,30.01,NNW,347,3.0,4.0,79,0.00,,,0.00,weatherlink.com 1.10,2013-06-26 14:07:00,
2013-06-26 09:22:00,86.1,78.0,30.01,SW,222,0.0,3.0,76,0.00,,,0.00,weatherlink.com 1.10,2013-06-26 14:22:00,
2013-06-26 09:37:00,86.8,78.0,30.01,WSW,252,0.0,4.0,75,0.00,,,0.00,weatherlink.com 1.10,2013-06-26 14:37:00,
2013-06-26 09:52:00,87.5,78.0,30.01,NNW,338,1.0,9.0,74,0.00,,,0.00,weatherlink.com 1.10,2013-06-26 14:52:00,
2013-06-26 10:07:00,86.9,77.0,30.01,SW,233,0.0,8.0,73,0.00,,,0.00,weatherlink.com 1.10,2013-06-26 15:07:00,
2013-06-26 10:22:00,88.4,78.0,30.01,SSE,149,3.0,9.0,70,0.00,,,0.00,weatherlink.com 1.10,2013-06-26 15:22:00,
2013-06-26 10:37:00,89.2,78.0,30.01,NW,311,3.0,4.0,69,0.00,,,0.00,weatherlink.com 1.10,2013-06-26 15:37:00,
2013-06-26 10:52:00,90.5,77.0,30.02,SSE,158,4.0,8.0,64,0.00,,,0.00,weatherlink.com 1.10,2013-06-26 15:52:00,
2013-06-26 11:07:00,89.8,77.0,30.02,South,191,1.0,8.0,67,0.00,,,0.00,weatherlink.com 1.10,2013-06-26 16:07:00,
2013-06-26 11:22:00,90.5,78.0,30.02,West,262,4.0,10.0,67,0.00,,,0.00,weatherlink.com 1.10,2013-06-26 16:22:00,
2013-06-26 11:38:00,90.9,78.0,30.02,SSE,155,3.0,6.0,65,0.00,,,0.00,weatherlink.com 1.10,2013-06-26 16:38:00,
2013-06-26 11:53:00,88.6,77.0,30.02,WNW,286,1.0,6.0,68,0.00,,,0.00,weatherlink.com 1.10,2013-06-26 16:53:00,
2013-06-26 12:08:00,89.6,78.0,30.02,South,183,4.0,10.0,69,0.00,,,0.00,weatherlink.com 1.10,2013-06-26 17:08:00,
2013-06-26 12:23:00,91.1,77.0,30.02,SSW,211,2.0,11.0,64,0.00,,,0.00,weatherlink.com 1.10,2013-06-26 17:23:00,
2013-06-26 12:38:00,92.2,76.0,30.01,SW,225,1.0,9.0,59,0.00,,,0.00,weatherlink.com 1.10,2013-06-26 17:38:00,
2013-06-26 12:53:00,92.9,76.0,30.01,SSW,212,0.0,7.0,59,0.00,,,0.00,weatherlink.com 1.10,2013-06-26 17:53:00,
2013-06-26 13:08:00,93.4,75.0,30.01,South,188,2.0,8.0,56,0.00,,,0.00,weatherlink.com 1.10,2013-06-26 18:08:00,
2013-06-26 13:23:00,93.6,75.0,30.00,WNW,293,1.0,9.0,55,0.00,,,0.00,weatherlink.com 1.10,2013-06-26 18:23:00,
2013-06-26 13:38:00,93.2,77.0,30.00,South,190,0.0,6.0,59,0.00,,,0.00,weatherlink.com 1.10,2013-06-26 18:38:00,
2013-06-26 13:53:00,93.7,77.0,29.99,SE,143,1.0,8.0,58,0.00,,,0.00,weatherlink.com 1.10,2013-06-26 18:53:00,
2013-06-26 14:08:00,94.0,77.0,29.99,West,280,1.0,7.0,58,0.00,,,0.00,weatherlink.com 1.10,2013-06-26 19:08:00,
2013-06-26 14:23:00,94.1,78.0,29.98,NW,315,0.0,8.0,59,0.00,,,0.00,weatherlink.com 1.10,2013-06-26 19:23:00,
2013-06-26 14:38:00,94.3,79.0,29.98,South,186,0.0,9.0,61,0.00,,,0.00,weatherlink.com 1.10,2013-06-26 19:38:00,
2013-06-26 14:53:00,95.0,77.0,29.98,SSW,194,4.0,6.0,56,0.00,,,0.00,weatherlink.com 1.10,2013-06-26 19:53:00,
2013-06-26 15:08:00,94.8,77.0,29.98,SW,231,2.0,7.0,57,0.00,,,0.00,weatherlink.com 1.10,2013-06-26 20:08:00,
2013-06-26 15:23:00,94.5,78.0,29.97,South,183,3.0,5.0,59,0.00,,,0.00,weatherlink.com 1.10,2013-06-26 20:23:00,
2013-06-26 15:38:00,93.6,77.0,29.96,SE,127,2.0,7.0,59,0.00,,,0.00,weatherlink.com 1.10,2013-06-26 20:38:00,
2013-06-26 15:53:00,93.8,78.0,29.96,ESE,113,6.0,6.0,60,0.00,,,0.00,weatherlink.com 1.10,2013-06-26 20:53:00,
2013-06-26 16:08:00,95.3,79.0,29.95,WNW,285,0.0,5.0,59,0.00,,,0.00,weatherlink.com 1.10,2013-06-26 21:08:00,
2013-06-26 16:23:00,95.2,79.0,29.95,ESE,120,2.0,7.0,59,0.00,,,0.00,weatherlink.com 1.10,2013-06-26 21:23:00,
2013-06-26 16:38:00,94.6,78.0,29.95,SSW,204,1.0,6.0,58,0.00,,,0.00,weatherlink.com 1.10,2013-06-26 21:38:00,
2013-06-26 16:53:00,92.8,76.0,29.96,South,188,6.0,11.0,59,0.00,,,0.00,weatherlink.com 1.10,2013-06-26 21:53:00,
2013-06-26 17:08:00,93.1,77.0,29.95,South,169,0.0,7.0,60,0.00,,,0.00,weatherlink.com 1.10,2013-06-26 22:08:00,
2013-06-26 17:23:00,92.9,76.0,29.95,SW,221,4.0,11.0,58,0.00,,,0.00,weatherlink.com 1.10,2013-06-26 22:23:00,
2013-06-26 17:38:00,92.7,75.0,29.94,South,191,7.0,7.0,57,0.00,,,0.00,weatherlink.com 1.10,2013-06-26 22:38:00,
2013-06-26 17:53:00,90.2,76.0,29.94,West,281,3.0,11.0,63,0.00,,,0.00,weatherlink.com 1.10,2013-06-26 22:53:00,
2013-06-26 18:08:00,90.2,76.0,29.94,SSE,158,1.0,8.0,64,0.00,,,0.00,weatherlink.com 1.10,2013-06-26 23:08:00,
2013-06-26 18:23:00,90.5,76.0,29.94,South,176,6.0,9.0,62,0.00,,,0.00,weatherlink.com 1.10,2013-06-26 23:23:00,
2013-06-26 18:38:00,90.5,76.0,29.94,South,172,6.0,8.0,62,0.00,,,0.00,weatherlink.com 1.10,2013-06-26 23:38:00,
2013-06-26 18:53:00,90.8,76.0,29.93,SSE,159,1.0,6.0,62,0.00,,,0.00,weatherlink.com 1.10,2013-06-26 23:53:00,
2013-06-26 19:08:00,90.0,76.0,29.93,SE,136,3.0,6.0,63,0.00,,,0.00,weatherlink.com 1.10,2013-06-27 00:08:00,
2013-06-26 19:23:00,88.7,76.0,29.93,SSW,212,2.0,4.0,66,0.00,,,0.00,weatherlink.com 1.10,2013-06-27 00:23:00,
2013-06-26 19:38:00,87.7,76.0,29.93,SSE,153,1.0,5.0,69,0.00,,,0.00,weatherlink.com 1.10,2013-06-27 00:38:00,
2013-06-26 19:53:00,86.4,76.0,29.93,SW,231,2.0,4.0,72,0.00,,,0.00,weatherlink.com 1.10,2013-06-27 00:53:00,
2013-06-26 20:08:00,84.7,76.0,29.94,SSW,200,0.0,4.0,76,0.00,,,0.00,weatherlink.com 1.10,2013-06-27 01:08:00,
2013-06-26 20:23:00,83.6,76.0,29.93,SSE,167,1.0,3.0,77,0.00,,,0.00,weatherlink.com 1.10,2013-06-27 01:23:00,
2013-06-26 20:38:00,82.7,76.0,29.93,SSW,195,1.0,3.0,80,0.00,,,0.00,weatherlink.com 1.10,2013-06-27 01:38:00,
2013-06-26 20:53:00,81.7,76.0,29.93,SSW,204,0.0,4.0,82,0.00,,,0.00,weatherlink.com 1.10,2013-06-27 01:53:00,
2013-06-26 21:08:00,81.1,76.0,29.93,South,181,1.0,3.0,83,0.00,,,0.00,weatherlink.com 1.10,2013-06-27 02:08:00,
2013-06-26 21:23:00,80.6,75.0,29.93,SSW,194,0.0,1.0,84,0.00,,,0.00,weatherlink.com 1.10,2013-06-27 02:23:00,
2013-06-26 21:38:00,79.9,75.0,29.93,South,191,0.0,1.0,85,0.00,,,0.00,weatherlink.com 1.10,2013-06-27 02:38:00,
2013-06-26 21:53:00,79.2,75.0,29.93,South,187,0.0,0.0,87,0.00,,,0.00,weatherlink.com 1.10,2013-06-27 02:53:00,
2013-06-26 22:08:00,78.9,75.0,29.94,SSW,194,0.0,1.0,88,0.00,,,0.00,weatherlink.com 1.10,2013-06-27 03:08:00,
2013-06-26 22:23:00,78.1,75.0,29.95,SSW,194,0.0,0.0,89,0.00,,,0.00,weatherlink.com 1.10,2013-06-27 03:23:00,
2013-06-26 22:38:00,77.4,74.0,29.96,SSW,194,0.0,0.0,90,0.00,,,0.00,weatherlink.com 1.10,2013-06-27 03:38:00,
2013-06-26 22:53:00,76.7,74.0,29.96,SSW,194,0.0,0.0,91,0.00,,,0.00,weatherlink.com 1.10,2013-06-27 03:53:00,
2013-06-26 23:08:00,76.5,74.0,29.97,SSW,194,0.0,0.0,91,0.00,,,0.00,weatherlink.com 1.10,2013-06-27 04:08:00,
2013-06-26 23:23:00,75.9,74.0,29.98,SSW,194,0.0,0.0,92,0.00,,,0.00,weatherlink.com 1.10,2013-06-27 04:23:00,
2013-06-26 23:38:00,75.7,74.0,29.98,SSW,194,0.0,0.0,93,0.00,,,0.00,weatherlink.com 1.10,2013-06-27 04:38:00,
2013-06-26 23:53:00,75.8,74.0,29.98,SSW,194,0.0,0.0,93,0.00,,,0.00,weatherlink.com 1.10,2013-06-27 04:53:00,